TimeMDT,TemperatureF,Dew PointF,Humidity,Sea Level PressureIn,VisibilityMPH,Wind Direction,Wind SpeedMPH,Gust SpeedMPH,PrecipitationIn,Events,Conditions,WindDirDegrees,DateUTC
12:55 AM,66.0,46.0,48,29.72,10.0,ESE,10.4,-,N/A,,Clear,120,2013-09-09 06:55:00
1:55 AM,62.1,46.0,56,29.72,10.0,ESE,8.1,-,N/A,,Clear,110,2013-09-09 07:55:00
2:55 AM,62.1,46.0,56,29.70,10.0,ESE,8.1,-,N/A,,Clear,110,2013-09-09 08:55:00
3:55 AM,55.0,45.0,69,29.73,10.0,West,6.9,-,N/A,,Partly Cloudy,280,2013-09-09 09:55:00
4:55 AM,51.1,44.1,77,29.74,10.0,NNW,4.6,-,N/A,,Clear,340,2013-09-09 10:55:00
5:55 AM,51.1,44.1,77,29.76,10.0,West,8.1,-,N/A,,Clear,280,2013-09-09 11:55:00
6:55 AM,55.0,46.0,72,29.78,10.0,NW,6.9,-,N/A,,Partly Cloudy,310,2013-09-09 12:55:00
7:55 AM,64.0,50.0,60,29.78,10.0,NNW,11.5,-,N/A,,Clear,340,2013-09-09 13:55:00
8:55 AM,70.0,50.0,49,29.79,10.0,NNW,10.4,-,N/A,,Clear,340,2013-09-09 14:55:00
9:55 AM,75.9,50.0,40,29.78,10.0,North,13.8,-,N/A,,Clear,10,2013-09-09 15:55:00
10:55 AM,80.1,51.1,36,29.78,10.0,NNE,16.1,23.0,N/A,,Clear,20,2013-09-09 16:55:00
11:55 AM,82.0,52.0,35,29.76,10.0,North,11.5,29.9,N/A,,Clear,10,2013-09-09 17:55:00
12:55 PM,82.9,52.0,34,29.74,10.0,ENE,13.8,17.3,N/A,,Clear,60,2013-09-09 18:55:00
1:55 PM,84.9,48.9,29,29.72,10.0,North,10.4,-,N/A,,Clear,10,2013-09-09 19:55:00
2:55 PM,84.9,48.0,28,29.69,10.0,ESE,8.1,-,N/A,,Clear,110,2013-09-09 20:55:00
3:55 PM,84.9,46.0,26,29.70,10.0,Variable,3.5,-,N/A,,Clear,0,2013-09-09 21:55:00
4:55 PM,84.0,45.0,25,29.70,10.0,South,6.9,-,N/A,,Partly Cloudy,190,2013-09-09 22:55:00
5:55 PM,82.9,45.0,26,29.71,10.0,SSE,8.1,-,N/A,,Scattered Clouds,160,2013-09-09 23:55:00
6:52 PM,66.2,55.4,68,29.97,10.0,North,20.7,36.8,N/A,,Squalls,350,2013-09-10 00:52:00
6:55 PM,66.0,55.9,70,29.79,10.0,North,28.8,39.1,N/A,,Mostly Cloudy,350,2013-09-10 00:55:00
7:05 PM,62.6,55.4,77,29.97,10.0,North,31.1,41.4,N/A,,Overcast,350,2013-09-10 01:05:00
7:55 PM,62.1,55.9,80,29.82,10.0,North,20.7,27.6,N/A,,Partly Cloudy,360,2013-09-10 01:55:00
8:55 PM,60.1,55.0,83,29.86,10.0,NNW,17.3,28.8,N/A,,Clear,340,2013-09-10 02:55:00
9:55 PM,60.1,55.9,86,29.87,10.0,NNW,13.8,-,N/A,,Mostly Cloudy,330,2013-09-10 03:55:00
10:09 PM,60.8,55.4,82,30.08,10.0,NW,13.8,-,N/A,,Overcast,320,2013-09-10 04:09:00
10:29 PM,60.8,55.4,82,30.09,10.0,NNW,15.0,18.4,N/A,,Mostly Cloudy,340,2013-09-10 04:29:00
10:55 PM,60.1,55.9,86,29.88,10.0,NNW,9.2,17.3,N/A,,Mostly Cloudy,340,2013-09-10 04:55:00
11:25 PM,60.8,55.4,82,30.10,10.0,North,9.2,25.3,N/A,,Mostly Cloudy,360,2013-09-10 05:25:00
11:55 PM,60.1,55.9,86,29.87,10.0,NNW,13.8,19.6,N/A,,Overcast,340,2013-09-10 05:55:00